UAL22 EIDW-KEWR

Flight info

Callsign UAL22
Flight time N/A
Altitude 36000
Route PELIG2J PELIG DCT DOGAL/M082F380 NATD NEEKO/N0471F380 N622E TAFFY/N0466F400 DCT KJOHN DCT HANAA FLOSI4
Aircraft B772/H-SDE2E3FGHIJ5LORVWXY/LB1D1

Departure

Time N/A
Airport Dublin Airport (EIDW)

Arrival

Time 2026-05-05 14:43
Airport Newark Liberty International Airport (KEWR)
Time Latitude Longitude Altitude Speed Heading
2026-05-05 12:33 50.60551 -60.52254 35591 ft 476 kts 239°
2026-05-05 12:34 50.56907 -60.60949 35596 ft 476 kts 239°
2026-05-05 12:34 50.53249 -60.69646 35612 ft 477 kts 239°
2026-05-05 12:35 50.49585 -60.78330 35612 ft 477 kts 239°
2026-05-05 12:35 50.45908 -60.87014 35621 ft 477 kts 239°
2026-05-05 12:36 50.42229 -60.95676 35631 ft 477 kts 239°
2026-05-05 12:36 50.38546 -61.04318 35629 ft 477 kts 239°
2026-05-05 12:37 50.34858 -61.12944 35645 ft 477 kts 239°
2026-05-05 12:37 50.31189 -61.21496 35623 ft 475 kts 239°
2026-05-05 12:38 50.27504 -61.30058 35631 ft 473 kts 239°
2026-05-05 12:38 50.23826 -61.38574 35638 ft 472 kts 239°
2026-05-05 12:39 50.20150 -61.47061 35644 ft 471 kts 239°
2026-05-05 12:39 50.16475 -61.55518 35645 ft 471 kts 239°
2026-05-05 12:40 50.12797 -61.63954 35643 ft 469 kts 239°
2026-05-05 12:40 50.09124 -61.72352 35645 ft 469 kts 239°
2026-05-05 12:41 50.05447 -61.80734 35649 ft 468 kts 239°
2026-05-05 12:41 50.01770 -61.89090 35682 ft 468 kts 239°
2026-05-05 12:42 49.98087 -61.97431 35673 ft 468 kts 239°
2026-05-05 12:42 49.94393 -62.05772 35686 ft 468 kts 239°
2026-05-05 12:43 49.90714 -62.14051 35694 ft 469 kts 239°
2026-05-05 12:43 49.87006 -62.22372 35693 ft 469 kts 239°
2026-05-05 12:44 49.83291 -62.30679 35686 ft 468 kts 239°
2026-05-05 12:44 49.79577 -62.38958 35698 ft 468 kts 239°
2026-05-05 12:45 49.75867 -62.47205 35701 ft 467 kts 239°
2026-05-05 12:45 49.72143 -62.55457 35713 ft 467 kts 239°
2026-05-05 12:46 49.68420 -62.63681 35691 ft 467 kts 239°
2026-05-05 12:46 49.64697 -62.71878 35713 ft 466 kts 239°
2026-05-05 12:47 49.60962 -62.80076 35715 ft 466 kts 239°
2026-05-05 12:48 49.53767 -62.95804 35730 ft 466 kts 239°
2026-05-05 12:48 49.50032 -63.03927 35728 ft 464 kts 239°
2026-05-05 12:49 49.46295 -63.12034 35738 ft 464 kts 239°
2026-05-05 12:49 49.42561 -63.20108 35762 ft 464 kts 239°
2026-05-05 12:50 49.40687 -63.24155 35956 ft 466 kts 239°
2026-05-05 12:50 49.38805 -63.28212 36193 ft 466 kts 239°
2026-05-05 12:50 49.36925 -63.32256 36400 ft 466 kts 239°
2026-05-05 12:50 49.35043 -63.36296 36732 ft 465 kts 239°
2026-05-05 12:51 49.33158 -63.40338 36935 ft 466 kts 238°
2026-05-05 12:51 49.31271 -63.44381 37080 ft 468 kts 238°
2026-05-05 12:51 49.29374 -63.48437 37267 ft 469 kts 238°
2026-05-05 12:51 49.27495 -63.52448 37455 ft 470 kts 238°
2026-05-05 12:52 49.25586 -63.56519 37628 ft 470 kts 238°
2026-05-05 12:52 49.23670 -63.60597 37698 ft 472 kts 238°
2026-05-05 12:52 49.19823 -63.68764 37738 ft 473 kts 238°
2026-05-05 12:53 49.15988 -63.76879 37744 ft 469 kts 238°
2026-05-05 12:53 49.12171 -63.84932 37745 ft 466 kts 238°
2026-05-05 12:54 49.06475 -63.96912 37749 ft 465 kts 238°
2026-05-05 12:55 49.02670 -64.04885 37738 ft 465 kts 238°
2026-05-05 12:55 48.98854 -64.12854 37755 ft 465 kts 237°
2026-05-05 12:56 48.95065 -64.20746 37750 ft 464 kts 237°
2026-05-05 12:56 48.91249 -64.28671 37747 ft 464 kts 237°
2026-05-05 12:57 48.87431 -64.36574 37740 ft 463 kts 237°
2026-05-05 12:57 48.83613 -64.44456 37755 ft 463 kts 237°
2026-05-05 12:58 48.79797 -64.52310 37759 ft 462 kts 237°
2026-05-05 12:58 48.75978 -64.60148 37759 ft 462 kts 237°
2026-05-05 12:59 48.72150 -64.67983 37736 ft 462 kts 237°
2026-05-05 12:59 48.68318 -64.75799 37754 ft 462 kts 237°
2026-05-05 13:00 48.62597 -64.87429 37783 ft 462 kts 237°
2026-05-05 13:01 48.54930 -65.02938 37769 ft 461 kts 237°
2026-05-05 13:01 48.51093 -65.10666 37760 ft 459 kts 237°
2026-05-05 13:02 48.47265 -65.18354 37767 ft 458 kts 237°
2026-05-05 13:02 48.43433 -65.26028 37766 ft 457 kts 237°
2026-05-05 13:03 48.39615 -65.33652 37760 ft 456 kts 237°
2026-05-05 13:03 48.35790 -65.41270 37775 ft 456 kts 237°
2026-05-05 13:04 48.31955 -65.48887 37766 ft 457 kts 237°
2026-05-05 13:04 48.28117 -65.56487 37772 ft 457 kts 237°
2026-05-05 13:05 48.24381 -65.63866 37765 ft 457 kts 237°
2026-05-05 13:05 48.20547 -65.71414 37761 ft 458 kts 237°
2026-05-05 13:06 48.16683 -65.79005 37768 ft 458 kts 237°
2026-05-05 13:06 48.12809 -65.86590 37764 ft 459 kts 236°
2026-05-05 13:07 48.08923 -65.94179 37765 ft 459 kts 236°
2026-05-05 13:07 48.05033 -66.01754 37753 ft 459 kts 236°
2026-05-05 13:08 48.01132 -66.09328 37765 ft 459 kts 236°
2026-05-05 13:08 47.97229 -66.16887 37767 ft 460 kts 236°
2026-05-05 13:09 47.93318 -66.24440 37768 ft 460 kts 236°
2026-05-05 13:09 47.89400 -66.31987 37752 ft 460 kts 236°
2026-05-05 13:10 47.85475 -66.39524 37761 ft 460 kts 236°
2026-05-05 13:10 47.81543 -66.47055 37749 ft 461 kts 236°
2026-05-05 13:11 47.77602 -66.54581 37744 ft 461 kts 235°
2026-05-05 13:11 47.73655 -66.62100 37752 ft 461 kts 235°
2026-05-05 13:12 47.69727 -66.69561 37740 ft 461 kts 235°
2026-05-05 13:12 47.65769 -66.77059 37744 ft 462 kts 235°
2026-05-05 13:13 47.61804 -66.84547 37752 ft 461 kts 235°
2026-05-05 13:13 47.57836 -66.92021 37737 ft 461 kts 235°
2026-05-05 13:14 47.53970 -66.99287 37734 ft 460 kts 235°
2026-05-05 13:14 47.50009 -67.06710 37743 ft 460 kts 235°
2026-05-05 13:15 47.46043 -67.14123 37745 ft 459 kts 235°
2026-05-05 13:15 47.42098 -67.21479 37728 ft 459 kts 235°
2026-05-05 13:16 47.38134 -67.28847 37738 ft 458 kts 235°
2026-05-05 13:16 47.33829 -67.35818 37756 ft 460 kts 230°
2026-05-05 13:17 47.29357 -67.42578 37742 ft 460 kts 230°
2026-05-05 13:17 47.25646 -67.48190 37725 ft 460 kts 230°
2026-05-05 13:18 47.20433 -67.56091 37746 ft 460 kts 230°
2026-05-05 13:18 47.16723 -67.61715 37752 ft 461 kts 230°
2026-05-05 13:19 47.12258 -67.68466 37752 ft 461 kts 230°
2026-05-05 13:19 47.07793 -67.75200 37744 ft 460 kts 230°
2026-05-05 13:20 47.03336 -67.81906 37739 ft 458 kts 230°
2026-05-05 13:20 46.98885 -67.88584 37741 ft 457 kts 230°
2026-05-05 13:21 46.94449 -67.95223 37742 ft 456 kts 229°
2026-05-05 13:21 46.90015 -68.01843 37735 ft 455 kts 230°
2026-05-05 13:22 46.85588 -68.08437 37739 ft 454 kts 230°
2026-05-05 13:22 46.81154 -68.15023 37744 ft 454 kts 229°
2026-05-05 13:23 46.76755 -68.21541 37762 ft 454 kts 229°
2026-05-05 13:23 46.72320 -68.28098 37762 ft 454 kts 229°
2026-05-05 13:24 46.67877 -68.34648 37757 ft 454 kts 229°
2026-05-05 13:24 46.63428 -68.41192 37758 ft 454 kts 229°
2026-05-05 13:25 46.58976 -68.47723 37717 ft 455 kts 229°
2026-05-05 13:25 46.54524 -68.54237 37753 ft 454 kts 229°
2026-05-05 13:26 46.50074 -68.60735 37735 ft 453 kts 229°
2026-05-05 13:26 46.45659 -68.67163 37740 ft 452 kts 229°
2026-05-05 13:27 46.41224 -68.73606 37724 ft 451 kts 229°
2026-05-05 13:27 46.36796 -68.80023 37747 ft 450 kts 229°
2026-05-05 13:28 46.32363 -68.86432 37743 ft 450 kts 229°
2026-05-05 13:28 46.27921 -68.92839 37738 ft 451 kts 229°
2026-05-05 13:29 46.23481 -68.99228 37732 ft 451 kts 229°
2026-05-05 13:29 46.19032 -69.05613 37737 ft 451 kts 229°
2026-05-05 13:30 46.14581 -69.11986 37749 ft 451 kts 229°
2026-05-05 13:30 46.10118 -69.18360 37745 ft 452 kts 229°
2026-05-05 13:31 46.05651 -69.24725 37738 ft 452 kts 229°
2026-05-05 13:31 46.01184 -69.31074 37734 ft 452 kts 229°
2026-05-05 13:32 45.96710 -69.37418 37764 ft 452 kts 229°
2026-05-05 13:32 45.92231 -69.43754 37742 ft 451 kts 229°
2026-05-05 13:33 45.87831 -69.49964 37749 ft 451 kts 229°
2026-05-05 13:33 45.83353 -69.56268 37758 ft 451 kts 229°
2026-05-05 13:34 45.78903 -69.62519 37760 ft 451 kts 228°
2026-05-05 13:34 45.74421 -69.68800 37735 ft 450 kts 228°
2026-05-05 13:35 45.69941 -69.75062 37749 ft 449 kts 228°
2026-05-05 13:35 45.65474 -69.81291 37766 ft 448 kts 228°
2026-05-05 13:36 45.61004 -69.87510 37760 ft 448 kts 228°
2026-05-05 13:36 45.56538 -69.93710 37754 ft 447 kts 228°
2026-05-05 13:37 45.52076 -69.99889 37770 ft 446 kts 228°
2026-05-05 13:37 45.47617 -70.06050 37771 ft 447 kts 228°
2026-05-05 13:38 45.43181 -70.12164 37774 ft 446 kts 228°
2026-05-05 13:38 45.38715 -70.18307 37770 ft 446 kts 228°
2026-05-05 13:39 45.34250 -70.24434 37774 ft 446 kts 228°
2026-05-05 13:39 45.29775 -70.30560 37787 ft 446 kts 227°
2026-05-05 13:40 45.25303 -70.36669 37756 ft 446 kts 227°
2026-05-05 13:40 45.20828 -70.42766 37765 ft 445 kts 227°
2026-05-05 13:41 45.16388 -70.48801 37769 ft 445 kts 227°
2026-05-05 13:41 45.11918 -70.54865 37769 ft 444 kts 227°
2026-05-05 13:42 45.07457 -70.60902 37773 ft 444 kts 227°
2026-05-05 13:42 45.02990 -70.66933 37797 ft 444 kts 227°
2026-05-05 13:43 44.98520 -70.72956 37789 ft 444 kts 227°
2026-05-05 13:43 44.94042 -70.78974 37788 ft 444 kts 227°
2026-05-05 13:44 44.89564 -70.84980 37781 ft 444 kts 227°
2026-05-05 13:44 44.85084 -70.90974 37785 ft 444 kts 227°
2026-05-05 13:45 44.80599 -70.96962 37786 ft 444 kts 227°
2026-05-05 13:45 44.76110 -71.02942 37775 ft 444 kts 227°
2026-05-05 13:46 44.71617 -71.08914 37784 ft 444 kts 227°
2026-05-05 13:46 44.67159 -71.14826 37796 ft 444 kts 227°
2026-05-05 13:47 44.62663 -71.20775 37801 ft 444 kts 226°
2026-05-05 13:47 44.58170 -71.26707 37783 ft 444 kts 226°
2026-05-05 13:48 44.53671 -71.32634 37787 ft 444 kts 226°
2026-05-05 13:48 44.49168 -71.38551 37795 ft 443 kts 226°
2026-05-05 13:49 44.44665 -71.44457 37783 ft 444 kts 226°
2026-05-05 13:49 44.40158 -71.50356 37785 ft 444 kts 226°
2026-05-05 13:50 44.35645 -71.56250 37799 ft 444 kts 226°
2026-05-05 13:50 44.31120 -71.62146 37792 ft 445 kts 226°
2026-05-05 13:51 44.26589 -71.68039 37791 ft 445 kts 226°
2026-05-05 13:51 44.22125 -71.73923 37799 ft 443 kts 229°
2026-05-05 13:52 44.18251 -71.80546 37815 ft 440 kts 236°
2026-05-05 13:52 44.14655 -71.87423 37807 ft 440 kts 236°
2026-05-05 13:53 44.11027 -71.94294 37817 ft 440 kts 236°
2026-05-05 13:53 44.07395 -72.01133 37807 ft 439 kts 236°
2026-05-05 13:54 44.03771 -72.07934 37801 ft 437 kts 236°
2026-05-05 13:54 44.00150 -72.14713 37811 ft 436 kts 236°
2026-05-05 13:55 43.96533 -72.21472 37800 ft 435 kts 236°
2026-05-05 13:55 43.92921 -72.28205 37814 ft 435 kts 236°
2026-05-05 13:56 43.89300 -72.34941 37820 ft 436 kts 236°
2026-05-05 13:56 43.85673 -72.41672 37809 ft 436 kts 236°
2026-05-05 13:57 43.82053 -72.48373 37811 ft 437 kts 236°
2026-05-05 13:57 43.78399 -72.55123 37818 ft 438 kts 235°
2026-05-05 13:58 43.74712 -72.61917 37824 ft 440 kts 235°
2026-05-05 13:58 43.71024 -72.68698 37812 ft 441 kts 235°
2026-05-05 13:59 43.65498 -72.78827 37806 ft 443 kts 235°
2026-05-05 14:00 43.60544 -72.87880 37819 ft 444 kts 235°
2026-05-05 14:00 43.56187 -72.95816 37834 ft 444 kts 235°
2026-05-05 14:01 43.52456 -73.02599 37825 ft 444 kts 234°
2026-05-05 14:01 43.48725 -73.09365 37820 ft 443 kts 234°
2026-05-05 14:02 43.44993 -73.16115 37809 ft 442 kts 234°
2026-05-05 14:02 43.41273 -73.22828 37814 ft 441 kts 234°
2026-05-05 14:03 43.37547 -73.29540 37794 ft 441 kts 234°
2026-05-05 14:03 43.33848 -73.36188 37821 ft 441 kts 234°
2026-05-05 14:04 43.30141 -73.42832 37824 ft 440 kts 234°
2026-05-05 14:04 43.26413 -73.49504 37822 ft 440 kts 234°
2026-05-05 14:05 43.23306 -73.55053 37828 ft 440 kts 234°
2026-05-05 14:05 43.19084 -73.61079 37838 ft 445 kts 217°
2026-05-05 14:06 43.16304 -73.63010 37814 ft 453 kts 202°
2026-05-05 14:06 43.13275 -73.64231 37838 ft 455 kts 200°
2026-05-05 14:06 43.07175 -73.66679 37833 ft 459 kts 201°
2026-05-05 14:07 43.01041 -73.69240 37820 ft 463 kts 201°
2026-05-05 14:07 42.94859 -73.71853 37822 ft 466 kts 201°
2026-05-05 14:08 42.88655 -73.74469 37828 ft 467 kts 201°
2026-05-05 14:08 42.82445 -73.77080 37854 ft 467 kts 201°
2026-05-05 14:09 42.76269 -73.79672 37846 ft 467 kts 201°
2026-05-05 14:09 42.70073 -73.82350 37835 ft 467 kts 202°
2026-05-05 14:10 42.63910 -73.85144 37845 ft 466 kts 202°
2026-05-05 14:10 42.57750 -73.87929 37836 ft 466 kts 202°
2026-05-05 14:11 42.51598 -73.90684 37837 ft 466 kts 202°
2026-05-05 14:11 42.45441 -73.93430 37834 ft 465 kts 201°
2026-05-05 14:12 42.39289 -73.96168 37844 ft 465 kts 201°
2026-05-05 14:12 42.33137 -73.98901 37849 ft 465 kts 201°
2026-05-05 14:13 42.27136 -74.01558 37835 ft 444 kts 201°
2026-05-05 14:13 42.24213 -74.02851 37412 ft 439 kts 201°
2026-05-05 14:13 42.21331 -74.04127 36992 ft 433 kts 201°
2026-05-05 14:14 42.18484 -74.05385 36567 ft 428 kts 201°
2026-05-05 14:14 42.15668 -74.06629 36126 ft 423 kts 201°
2026-05-05 14:14 42.12888 -74.07857 35708 ft 419 kts 201°
2026-05-05 14:14 42.10129 -74.09076 35252 ft 415 kts 201°
2026-05-05 14:15 42.07395 -74.10280 34811 ft 412 kts 201°
2026-05-05 14:15 42.04707 -74.11460 34800 ft 401 kts 201°
2026-05-05 14:15 41.99322 -74.13825 34792 ft 416 kts 201°
2026-05-05 14:16 41.93762 -74.16262 34779 ft 420 kts 201°
2026-05-05 14:16 41.88209 -74.18688 34777 ft 418 kts 200°
2026-05-05 14:17 41.82690 -74.21097 34768 ft 417 kts 200°
2026-05-05 14:17 41.77216 -74.23484 34776 ft 416 kts 200°
2026-05-05 14:18 41.71714 -74.25881 34778 ft 416 kts 200°
2026-05-05 14:18 41.66200 -74.28276 34787 ft 417 kts 200°
2026-05-05 14:19 41.63450 -74.29469 34627 ft 415 kts 200°
2026-05-05 14:19 41.60712 -74.30655 34160 ft 409 kts 200°
2026-05-05 14:19 41.58044 -74.31809 33204 ft 399 kts 200°
2026-05-05 14:19 41.55415 -74.32947 32042 ft 395 kts 200°
2026-05-05 14:20 41.52819 -74.34070 30958 ft 390 kts 200°
2026-05-05 14:20 41.50251 -74.35180 29938 ft 385 kts 199°
2026-05-05 14:20 41.47726 -74.36270 28851 ft 378 kts 200°
2026-05-05 14:20 41.45264 -74.37330 28169 ft 363 kts 200°
2026-05-05 14:21 41.42927 -74.38334 27769 ft 342 kts 200°
2026-05-05 14:21 41.40751 -74.39370 27317 ft 322 kts 211°
2026-05-05 14:21 41.39000 -74.41078 26735 ft 306 kts 229°
2026-05-05 14:21 41.37775 -74.43272 26113 ft 296 kts 243°
2026-05-05 14:22 41.37005 -74.45774 25376 ft 291 kts 255°
2026-05-05 14:22 41.36724 -74.48427 24646 ft 289 kts 269°
2026-05-05 14:22 41.36980 -74.51071 23960 ft 288 kts 284°
2026-05-05 14:22 41.37778 -74.53510 23259 ft 289 kts 299°
2026-05-05 14:23 41.39065 -74.55560 22485 ft 291 kts 314°
2026-05-05 14:23 41.40752 -74.57071 21725 ft 295 kts 329°
2026-05-05 14:23 41.42712 -74.57965 20965 ft 300 kts 341°
2026-05-05 14:23 41.44784 -74.58333 20252 ft 304 kts 356°
2026-05-05 14:24 41.46878 -74.57785 19521 ft 311 kts 13°
2026-05-05 14:24 41.48929 -74.56869 18802 ft 310 kts 12°
2026-05-05 14:24 41.50976 -74.56001 18128 ft 308 kts 12°
2026-05-05 14:24 41.53011 -74.55158 17407 ft 304 kts 11°
2026-05-05 14:25 41.55022 -74.54328 16710 ft 301 kts 13°
2026-05-05 14:25 41.56895 -74.53039 15967 ft 309 kts 36°
2026-05-05 14:25 41.58375 -74.50947 15290 ft 311 kts 54°
2026-05-05 14:25 41.59401 -74.48411 14575 ft 312 kts 71°
2026-05-05 14:26 41.59845 -74.45595 13866 ft 309 kts 91°
2026-05-05 14:26 41.59666 -74.42780 13244 ft 299 kts 110°
2026-05-05 14:26 41.58937 -74.40254 12619 ft 285 kts 128°
2026-05-05 14:26 41.57781 -74.38253 12315 ft 262 kts 146°
2026-05-05 14:27 41.56366 -74.36830 12099 ft 260 kts 160°
2026-05-05 14:27 41.54711 -74.35861 11864 ft 259 kts 170°
2026-05-05 14:27 41.52994 -74.35221 11591 ft 253 kts 176°
2026-05-05 14:27 41.51284 -74.35012 11334 ft 240 kts 193°
2026-05-05 14:28 41.49715 -74.35529 11084 ft 229 kts 204°
2026-05-05 14:28 41.48208 -74.36175 10855 ft 225 kts 203°
2026-05-05 14:28 41.46722 -74.36793 10598 ft 223 kts 203°
2026-05-05 14:28 41.45250 -74.37402 10370 ft 220 kts 203°
2026-05-05 14:29 41.43795 -74.38002 10122 ft 218 kts 202°
2026-05-05 14:29 41.42359 -74.38591 9891 ft 215 kts 202°
2026-05-05 14:29 41.40904 -74.39024 9599 ft 224 kts 184°
2026-05-05 14:29 41.39285 -74.38378 9417 ft 260 kts 163°
2026-05-05 14:30 41.37619 -74.37349 9157 ft 265 kts 163°
2026-05-05 14:30 41.35938 -74.36354 8905 ft 265 kts 164°
2026-05-05 14:30 41.34242 -74.35392 8643 ft 265 kts 165°
2026-05-05 14:30 41.32536 -74.34457 8359 ft 264 kts 165°
2026-05-05 14:31 41.30836 -74.33549 8100 ft 263 kts 165°
2026-05-05 14:31 41.29136 -74.32658 7908 ft 260 kts 165°
2026-05-05 14:31 41.27461 -74.31791 7676 ft 257 kts 166°
2026-05-05 14:31 41.25792 -74.30936 7417 ft 256 kts 166°
2026-05-05 14:32 41.24132 -74.30092 7181 ft 254 kts 166°
2026-05-05 14:32 41.22501 -74.29268 6936 ft 253 kts 166°
2026-05-05 14:32 41.20856 -74.28439 6697 ft 253 kts 166°
2026-05-05 14:32 41.19209 -74.27611 6468 ft 253 kts 165°
2026-05-05 14:33 41.17566 -74.26784 6232 ft 253 kts 165°
2026-05-05 14:33 41.15917 -74.25961 5965 ft 254 kts 165°
2026-05-05 14:33 41.14261 -74.25133 5729 ft 255 kts 166°
2026-05-05 14:33 41.12596 -74.24303 5467 ft 255 kts 166°
2026-05-05 14:34 41.10932 -74.23471 5227 ft 256 kts 166°
2026-05-05 14:34 41.09260 -74.22634 4981 ft 257 kts 165°
2026-05-05 14:34 41.07589 -74.21795 4744 ft 257 kts 166°
2026-05-05 14:34 41.05937 -74.20975 4490 ft 258 kts 165°
2026-05-05 14:35 41.04258 -74.20141 4271 ft 256 kts 166°
2026-05-05 14:35 41.02609 -74.19312 4133 ft 250 kts 166°
2026-05-05 14:35 41.00995 -74.18508 4063 ft 249 kts 166°
2026-05-05 14:35 40.99341 -74.17692 4015 ft 257 kts 166°
2026-05-05 14:36 40.97673 -74.16856 3978 ft 252 kts 165°
2026-05-05 14:36 40.96078 -74.16056 4004 ft 239 kts 166°
2026-05-05 14:36 40.94547 -74.15295 4033 ft 235 kts 166°
2026-05-05 14:36 40.93048 -74.14402 3995 ft 239 kts 158°
2026-05-05 14:37 40.91648 -74.13329 3848 ft 232 kts 156°
2026-05-05 14:37 40.90289 -74.12270 3649 ft 220 kts 157°
2026-05-05 14:37 40.88985 -74.11271 3538 ft 215 kts 158°
2026-05-05 14:37 40.87677 -74.10287 3448 ft 218 kts 157°
2026-05-05 14:38 40.86353 -74.09295 3356 ft 217 kts 157°
2026-05-05 14:38 40.85070 -74.08330 3185 ft 207 kts 159°
2026-05-05 14:38 40.83803 -74.07859 2917 ft 179 kts 193°
2026-05-05 14:38 40.82639 -74.08296 2735 ft 175 kts 206°
2026-05-05 14:39 40.81494 -74.08820 2494 ft 170 kts 206°
2026-05-05 14:39 40.80449 -74.09362 2309 ft 159 kts 210°
2026-05-05 14:39 40.79460 -74.09966 2095 ft 156 kts 212°
2026-05-05 14:39 40.78498 -74.10579 1868 ft 152 kts 211°
2026-05-05 14:40 40.77549 -74.11185 1689 ft 146 kts 211°
2026-05-05 14:40 40.76682 -74.11735 1476 ft 131 kts 212°
2026-05-05 14:40 40.75891 -74.12219 1340 ft 123 kts 209°
2026-05-05 14:40 40.75111 -74.12737 1164 ft 129 kts 210°
2026-05-05 14:41 40.74526 -74.13114 1066 ft 127 kts 211°
2026-05-05 14:41 40.73977 -74.13463 925 ft 124 kts 209°
2026-05-05 14:41 40.73176 -74.13958 784 ft 132 kts 208°
2026-05-05 14:41 40.72387 -74.14477 576 ft 120 kts 209°
2026-05-05 14:42 40.71605 -74.14965 516 ft 132 kts 207°
2026-05-05 14:42 40.70792 -74.15468 296 ft 128 kts 208°
2026-05-05 14:42 40.70005 -74.15996 96 ft 128 kts 210°
2026-05-05 14:42 40.69220 -74.16501 31 ft 122 kts 209°
2026-05-05 14:43 40.68598 -74.16894 27 ft 63 kts 205°
2026-05-05 14:43 40.68369 -74.17053 26 ft 27 kts 216°
2026-05-05 14:43 40.68262 -74.17186 26 ft 9 kts 231°
2026-05-05 14:43 40.68224 -74.17255 27 ft 9 kts 236°
2026-05-05 14:44 40.68194 -74.17313 27 ft 2 kts 236°
2026-05-05 14:44 40.68186 -74.17329 27 ft 3 kts 236°
2026-05-05 14:44 40.68162 -74.17374 26 ft 8 kts 236°
2026-05-05 14:44 40.68156 -74.17450 29 ft 9 kts 283°
2026-05-05 14:45 40.68176 -74.17530 31 ft 9 kts 295°
2026-05-05 14:45 40.68203 -74.17604 26 ft 7 kts 296°
2026-05-05 14:45 40.68240 -74.17638 27 ft 7 kts 359°
2026-05-05 14:45 40.68292 -74.17620 27 ft 8 kts 21°
2026-05-05 14:46 40.68345 -74.17591 27 ft 8 kts 25°
2026-05-05 14:46 40.68399 -74.17558 28 ft 9 kts 25°
2026-05-05 14:46 40.68458 -74.17521 28 ft 10 kts 25°
2026-05-05 14:46 40.68522 -74.17481 28 ft 11 kts 26°
2026-05-05 14:47 40.68590 -74.17437 28 ft 11 kts 26°
2026-05-05 14:47 40.68660 -74.17393 28 ft 11 kts 25°
2026-05-05 14:47 40.68736 -74.17345 28 ft 13 kts 26°
2026-05-05 14:47 40.68820 -74.17291 27 ft 14 kts 26°
2026-05-05 14:48 40.68890 -74.17304 27 ft 11 kts 316°
2026-05-05 14:48 40.68963 -74.17313 27 ft 11 kts 17°
2026-05-05 14:48 40.69033 -74.17282 27 ft 11 kts 31°
2026-05-05 14:48 40.69090 -74.17277 27 ft 6 kts 307°
2026-05-05 14:49 40.69102 -74.17316 27 ft 4 kts 298°
2026-05-05 14:49 40.69121 -74.17343 27 ft 3 kts 317°
2026-05-05 14:49 40.69135 -74.17359 27 ft 0 kts 318°
2026-05-05 14:49 40.69139 -74.17364 27 ft 1 kts 319°
2026-05-05 14:50 40.69141 -74.17366 27 ft 0 kts 319°